Airfield :
LOGIN :

Register | Disclaimer

   EN    FR    IT 

 










Legend :    VFR   Marginal VFR   IFR   Intensive IFR   Very Intensive IFR
Visi :
Ceiling :
>= 8 km
>= 3000ft
5 to 8 km
1000 to 3000 ft
1500m to 5 km
500 to 1000 ft
800 to 1500m
200 to 500 ft
< 800m
< 200 ft
Symbols :   Thunderstorms  Fog  Heavy snow  Heavy precipitations  Wind > 20 kt
SIGMETs :     Misc.  Thunderstorms  Icing  Turbulence  Mountain Waves  Volcanic Ashes






- Airport Elevation : 112 ft
- IATA code : KIR


EIKY - Kerry Farranfore

CURRENT METAR :
  • 270830Z 25010KT 9999 SCT040 BKN049 10/08 Q0990

EXPIRED METARs :
  • 270800Z 23010KT 9999 FEW035 10/08 Q0990
  • 270730Z 24010KT 9999 -RA OVC033 10/09 Q0989
  • 270700Z 24010KT 9999 BKN033 OVC041 10/09 Q0989

TAF TAF EIKY
Valid from the 27 at 09:00 until the 27 at 18:00 UTC


270800Z 2709/2718 24014KT 9999 FEW015 BKN030
TEMPO 2709/2718 24015G26KT
TEMPO 2711/2714 5000 SHRA SCT018CB
TEMPO 2716/2718 4000 SHRA SCT018CB



MET'MAP, your aeronautical weather chart ! - Copyright ORBIFLY December 2007 - Disclaimer

ORBIFLY MET'MAP TEAM :

Programming & Development : Alexandra Zaïnal
Concept & original design : Baudouin d'Aumeries
Assistance for programming : Marc-Olivier Méhu
Technical & hardware support : Manuel Goepfert

Contact : metmap@orbifly.com




SOURCES & CREDITS :

   NOAA